Location: Kerberlivit
(48.2787°N, 4.5413°W)
Time: 10:17:22
(UTC+00:00)

Cosmos 2237 Rocket - Pass Details

Date: 18 February 2020
Orbit: 835 x 849 km, 71.0° (Epoch: 30 March)

Event Time Altitude Azimuth Distance (km) Brightness Sun altitude
Exits shadow 05:31:05 22° 312° (NW) 1,762 3.5 -18.9°
Maximum altitude 05:31:25 22° 318° (NW) 1,757 3.5 -18.9°
Drops below altitude 10° 05:35:44 10° 8° (N) 2,459 4.7 -18.2°
Sets 05:38:46 0° 23° (NNE) 3,397 5.7 -17.6°
